Погода в Мафикенге

ЮАР     25°52′18″S   25°36′23″E
темп.,
°C
ветер,
м/с
пор.,
м/с
влажн.,
%
обл.,
%
осадки,
мм/ч
давл.,
гПа
погр.,
м
17 октября, вс
вс1723:00+16ю59135 0.0 1014437
02:00+14ю510170 0.0 1014441
05:00+12ююв511190 0.0 1015381
08:00+16ююв79124 0.0 1016615
11:00+22ю5575 0.0 10141355
14:00+26ююз5645 0.0 10112177
17:00+23ююз65517 0.0 10122129
20:00+18ю5108100 0.0 1016291
18 октября, пн
пн1823:00+15ююв613125 0.0 1019481
02:00+14ююв614135 0.0 1018376
05:00+11юв6141737 0.0 1019335
08:00+16вюв7101435 0.0 1021666
11:00+23в5513100 0.0 10181855
14:00+26св337100 0.0 10142687
17:00+27ссз23645 0.0 10133038
20:00+20ююз22959 0.0 101516
19 октября, вт
вт1923:00+17ссв813671 0.3 1019666
02:00+16ссв7117028 0.3 1019735
05:00+13св6118081 0.0 1021670
08:00+15св7967100 0.0 1023968
11:00+19св785273 0.0 10221330
14:00+23ссв773822 0.0 10181669
17:00+22ссв644143 0.0 10181937
20:00+19св77506 0.0 1020800
20 октября, ср
ср2023:00+15ссв711660 0.0 1021474
02:00+13ссв71378100 0.0 1021473
05:00+12ссв71482100 0.0 1021567
08:00+15св81266100 0.0 1023721
11:00+22ссв88404 0.0 10201350
14:00+27ссв55251 0.0 10162069
17:00+26ссв44235 0.0 10132332
20:00+21ссв483463 0.0 1016187
21 октября, чт
чт2123:00+20ссв6114487 0.0 1017265
02:00+19св5104672 0.0 1015261
05:00+18св51157100 0.0 1017335
08:00+21ссв6846100 0.0 1018697
11:00+24с6636100 0.0 10161583
14:00+25с2333100 0.0 10121964
17:00+18зсз5778100 1.6 1015386
20:00+18ююз5676100 2.4 1014375